User: anonymous
Location: Reading
(52.0000°N, 0.0000°E)
Time: 06:51:55
(UTC+01:00)
Language:

Iridium 41 - Orbit

View from above orbital plane
View from above orbital plane
View from above satellite
View from above satellite

Ground track
Ground track

The orbit data is extracted from the following two-line orbital elements,

1 25040U 97069B   14109.46727260  .00000430  00000-0  14658-3 0  7577
2 25040 086.3962 144.6077 0002550 110.5054 023.5035 14.34214613860803
Epoch (UTC): 19 April 2014 11:12:52
Eccentricity: 0.0002550
inclination: 86.3962°
perigee height: 776 km
apogee height: 779 km
right ascension of ascending node: 144.6077°
argument of perigee: 110.5054°
revolutions per day: 14.34214613
mean anomaly at epoch: 23.5035°
orbit number at epoch: 86080

The dashed part of the orbit path shows where the satellite is in the earth's shadow,  

DLR